Short Creek, WV

5:01 PM EST on February 24, 2017 (GMT -0500)
Wheeling-Ohio County

Weather History for KHLG - November, 2012

Change the Weather History Date:

Wednesday, November 14, 2012

  Actual Average Record
Temperature  
Mean Temperature 34 °F 44 °F  
Max Temperature 39 °F 52 °F 71 °F (2011)
Min Temperature 28 °F 36 °F 21 °F (1950)
Degree Days  
Heating Degree Days 31 21  
Month to date heating degree days 331 265  
Since 1 July heating degree days 817 739  
Cooling Degree Days 0    
Month to date cooling degree days 0  
Year to date cooling degree days 996  
Moisture  
Dew Point 24 °F    
Average Humidity 72    
Maximum Humidity 85    
Minimum Humidity 59    
Precipitation  
Precipitation 0.00 in 0.10 in 0.77 in (2011)
Month to date precipitation 0.34 1.45  
Sea Level Pressure  
Sea Level Pressure 30.51 in    
Wind  
Wind Speed 7 mph (ENE)    
Max Wind Speed 10 mph    
Max Gust Speed 16 mph    
Visibility 10 miles    
Events      
T = Trace of Precipitation, MM = Missing Value Source: NWS Daily Summary

Daily Weather History Graph

Daily Weather History Graph

Search for Another Location

Airport or City:

Trip Planner

Search our weather history database for the weather conditions in past years. The results will help you decide how hot, cold, wet, or windy it might be!

Date:

Astronomy

Nov. 14, 2012 Rise Set
Actual Time 7:07 AM EST 5:06 PM EST
Civil Twilight 6:38 AM EST 5:35 PM EST
Nautical Twilight 6:05 AM EST 6:08 PM EST
Astronomical Twilight 5:33 AM EST 6:40 PM EST
Moon 7:55 AM EST (11/14) 5:53 PM EST (11/14)
Length of Visible Light 10h 56m
Length of Day
9h 58m
New Moon, 1% of the Moon is Illuminated
Nov 14
New Moon
Nov 20
First Quarter
Nov 28
Full
Dec 6
Last Quarter
Dec 13
New

Hourly Weather History & Observations

Time (EST) Temp. Windchill Dew Point Humidity Pressure Visibility Wind Dir Wind Speed Gust Speed Precip Events Conditions
12:53 AM 30.9 °F 24.3 °F 23.0 °F 72% 30.54 in 10.0 mi ENE 6.9 mph - N/A   Clear
1:53 AM 30.9 °F 24.3 °F 24.1 °F 76% 30.54 in 10.0 mi ENE 6.9 mph - N/A   Clear
2:53 AM 30.0 °F 22.4 °F 24.1 °F 79% 30.54 in 10.0 mi ENE 8.1 mph - N/A   Clear
3:53 AM 28.9 °F 21.1 °F 24.1 °F 82% 30.54 in 10.0 mi ENE 8.1 mph - N/A   Clear
4:53 AM 28.0 °F 20.0 °F 24.1 °F 85% 30.54 in 10.0 mi NE 8.1 mph - N/A   Clear
5:53 AM 28.9 °F 21.1 °F 24.1 °F 82% 30.57 in 10.0 mi NE 8.1 mph - N/A   Clear
6:53 AM 28.0 °F 20.8 °F 23.0 °F 81% 30.57 in 10.0 mi NE 6.9 mph - N/A   Clear
7:53 AM 30.0 °F 21.7 °F 23.0 °F 75% 30.58 in 10.0 mi NE 9.2 mph - N/A   Partly Cloudy
8:23 AM 30.2 °F 23.4 °F 23.0 °F 75% 30.53 in 10.0 mi NE 6.9 mph - N/A   Mostly Cloudy
8:53 AM 32.0 °F 24.8 °F 24.1 °F 73% 30.58 in 10.0 mi NE 8.1 mph - N/A   Overcast
9:53 AM 33.1 °F 30.0 °F 25.0 °F 72% 30.58 in 10.0 mi NE 3.5 mph - N/A   Overcast
10:53 AM 35.1 °F 28.6 °F 25.0 °F 67% 30.58 in 10.0 mi ENE 8.1 mph - N/A   Overcast
11:53 AM 35.1 °F 27.4 °F 24.1 °F 64% 30.55 in 10.0 mi East 10.4 mph - N/A   Overcast
12:53 PM 36.0 °F 31.1 °F 24.1 °F 62% 30.53 in 10.0 mi ENE 5.8 mph - N/A   Scattered Clouds
1:22 PM 37.4 °F 32.1 °F 24.8 °F 60% 30.47 in 10.0 mi NE 6.9 mph - N/A   Mostly Cloudy
1:29 PM 37.4 °F 30.3 °F 24.8 °F 60% 30.46 in 10.0 mi NE 10.4 mph - N/A   Scattered Clouds
1:53 PM 37.9 °F 31.5 °F 24.1 °F 57% 30.51 in 10.0 mi ENE 9.2 mph - N/A   Partly Cloudy
2:53 PM 37.9 °F 31.5 °F 24.1 °F 57% 30.48 in 10.0 mi ENE 9.2 mph - N/A   Clear
3:53 PM 37.9 °F 32.1 °F 24.1 °F 57% 30.48 in 10.0 mi ENE 8.1 mph - N/A   Clear
4:53 PM 35.1 °F 30.1 °F 24.1 °F 64% 30.47 in 10.0 mi NE 5.8 mph - N/A   Clear
5:53 PM 34.0 °F 26.6 °F 23.0 °F 64% 30.46 in 10.0 mi ENE 9.2 mph - N/A   Clear
6:53 PM 34.0 °F 29.8 °F 23.0 °F 64% 30.47 in 10.0 mi NNE 4.6 mph - N/A   Clear
7:53 PM 34.0 °F 28.8 °F 23.0 °F 64% 30.47 in 10.0 mi ENE 5.8 mph - N/A   Clear
8:53 PM 33.1 °F 25.5 °F 23.0 °F 66% 30.45 in 10.0 mi NE 9.2 mph - N/A   Clear
9:53 PM 33.1 °F 26.1 °F 23.0 °F 66% 30.44 in 10.0 mi ENE 8.1 mph - N/A   Clear
10:53 PM 32.0 °F 26.4 °F 23.0 °F 69% 30.42 in 10.0 mi ENE 5.8 mph - N/A   Clear
11:53 PM 32.0 °F 26.4 °F 23.0 °F 69% 30.40 in 10.0 mi East 5.8 mph - N/A   Clear